{"data":{"norad_id":58983,"epoch":"2026-05-25T03:15:41.133600Z","epoch_age_seconds":59837,"freshness":"FRESH","line1":"1 58983U 24031U   26145.13589275  .00000720  00000+0  32458-4 0  9995","line2":"2 58983  53.1615 301.1669 0001183  94.1370 265.9767 15.34392013128227","mean_motion":15.34392013,"eccentricity":0.0001183,"inclination_deg":53.1615,"raan_deg":301.1669,"arg_perigee_deg":94.137,"mean_anomaly_deg":265.9767,"bstar":3.2458e-5,"rev_number":12822,"period_min":93.848246588859,"perigee_km":461.9177051485,"apogee_km":463.53625356602,"semimajor_km":6840.8639793573,"source":"CELESTRAK","updated_at":"2026-05-25T13:38:18.796710Z"}}